| time (UTC) | temp F | wind direction | speed MPH | gust MPH | rain 1hr in | rain 24hr in | rain mn in | humidity % | barometer mb |
| 20260505004053 | 73 | 180 | 1.0 | 5.0 | 0.00 | 0.00 | 0.00 | 58 | 1008.7 |
| 20260505003554 | 73 | 175 | 2.0 | 9.0 | 0.00 | 0.00 | 0.00 | 58 | 1008.7 |
| 20260505003057 | 74 | 190 | 2.0 | 9.0 | 0.00 | 0.00 | 0.00 | 58 | 1008.7 |
| 20260505002553 | 74 | 192 | 2.0 | 6.0 | 0.00 | 0.00 | 0.00 | 57 | 1008.7 |
| 20260505002053 | 74 | 190 | 3.0 | 6.0 | 0.00 | 0.00 | 0.00 | 57 | 1008.6 |
| 20260505001553 | 74 | 190 | 2.0 | 5.0 | 0.00 | 0.00 | 0.00 | 57 | 1008.7 |
| 20260505001055 | 74 | 200 | 2.0 | 5.0 | 0.00 | 0.00 | 0.00 | 56 | 1008.8 |
| 20260505000552 | 74 | 200 | 1.0 | 5.0 | 0.00 | 0.00 | 0.00 | 56 | 1008.8 |
| 20260505000053 | 74 | 201 | 1.0 | 5.0 | 0.00 | 0.00 | 0.00 | 56 | 1008.7 |
| 20260504235552 | 75 | 190 | 1.0 | 8.0 | 0.00 | 0.00 | 0.00 | 56 | 1008.6 |
| 20260504235052 | 75 | 262 | 2.0 | 9.0 | 0.00 | 0.00 | 0.00 | 56 | 1008.7 |
| 20260504234552 | 75 | 224 | 1.0 | 9.0 | 0.00 | 0.00 | 0.00 | 56 | 1008.6 |
| 20260504234052 | 75 | 185 | 2.0 | 5.0 | 0.00 | 0.00 | 0.00 | 56 | 1008.8 |
| 20260504233554 | 75 | 140 | 2.0 | 7.0 | 0.00 | 0.00 | 0.00 | 55 | 1008.7 |
| 20260504233052 | 75 | 186 | 3.0 | 8.0 | 0.00 | 0.00 | 0.00 | 54 | 1008.7 |
| 20260504232550 | 75 | 84 | 3.0 | 9.0 | 0.00 | 0.00 | 0.00 | 54 | 1008.9 |
| 20260504232049 | 76 | 122 | 3.0 | 9.0 | 0.00 | 0.00 | 0.00 | 54 | 1008.9 |
| 20260504231548 | 76 | 179 | 4.0 | 8.0 | 0.00 | 0.00 | 0.00 | 54 | 1009.1 |
| 20260504231047 | 76 | 175 | 3.0 | 8.0 | 0.00 | 0.00 | 0.00 | 54 | 1009.2 |
| 20260504230551 | 76 | 174 | 2.0 | 7.0 | 0.00 | 0.00 | 0.00 | 54 | 1009.3 |
| 20260504230049 | 77 | 92 | 2.0 | 7.0 | 0.00 | 0.00 | 0.00 | 54 | 1009.3 |
| 20260504225547 | 77 | 165 | 0.0 | 6.0 | 0.00 | 0.00 | 0.00 | 54 | 1009.3 |
| 20260504225046 | 78 | 155 | 3.0 | 7.0 | 0.00 | 0.00 | 0.00 | 52 | 1009.4 |
| 20260504224546 | 78 | 186 | 2.0 | 7.0 | 0.00 | 0.00 | 0.00 | 52 | 1009.4 |
| 20260504224046 | 78 | 200 | 2.0 | 6.0 | 0.00 | 0.00 | 0.00 | 52 | 1009.4 |
| 20260504223549 | 79 | 155 | 2.0 | 6.0 | 0.00 | 0.00 | 0.00 | 50 | 1009.4 |
| 20260504223058 | 79 | 188 | 2.0 | 6.0 | 0.00 | 0.00 | 0.00 | 51 | 1009.3 |
| 20260504222547 | 79 | 192 | 2.0 | 9.0 | 0.00 | 0.00 | 0.00 | 50 | 1009.4 |
| 20260504222044 | 79 | 183 | 3.0 | 12.0 | 0.00 | 0.00 | 0.00 | 50 | 1009.4 |
| 20260504221556 | 79 | 202 | 3.0 | 12.0 | 0.00 | 0.00 | 0.00 | 50 | 1009.5 |
| 20260504221043 | 79 | 131 | 2.0 | 7.0 | 0.00 | 0.00 | 0.00 | 52 | 1009.6 |
| 20260504220542 | 79 | 184 | 2.0 | 9.0 | 0.00 | 0.00 | 0.00 | 51 | 1009.6 |
| 20260504220043 | 79 | 190 | 3.0 | 9.0 | 0.00 | 0.00 | 0.00 | 50 | 1009.7 |
| 20260504215542 | 79 | 213 | 4.0 | 14.0 | 0.00 | 0.00 | 0.00 | 49 | 1009.7 |
| 20260504215043 | 79 | 185 | 5.0 | 14.0 | 0.00 | 0.00 | 0.00 | 48 | 1009.7 |
| 20260504214541 | 80 | 102 | 4.0 | 11.0 | 0.00 | 0.00 | 0.00 | 49 | 1009.8 |
| 20260504214041 | 80 | 176 | 4.0 | 8.0 | 0.00 | 0.00 | 0.00 | 49 | 1009.7 |
| 20260504213540 | 79 | 198 | 3.0 | 10.0 | 0.00 | 0.00 | 0.00 | 50 | 1009.8 |
| 20260504213056 | 79 | 151 | 3.0 | 10.0 | 0.00 | 0.00 | 0.00 | 48 | 1009.9 |
| 20260504212539 | 80 | 139 | 3.0 | 10.0 | 0.00 | 0.00 | 0.00 | 49 | 1010.0 |
| 20260504212040 | 80 | 198 | 3.0 | 10.0 | 0.00 | 0.00 | 0.00 | 48 | 1010.1 |
| 20260504211541 | 80 | 197 | 4.0 | 10.0 | 0.00 | 0.00 | 0.00 | 48 | 1010.2 |
| 20260504211037 | 80 | 204 | 4.0 | 7.0 | 0.00 | 0.00 | 0.00 | 49 | 1010.3 |
| 20260504210538 | 80 | 159 | 2.0 | 10.0 | 0.00 | 0.00 | 0.00 | 48 | 1010.4 |
| 20260504210036 | 81 | 178 | 4.0 | 12.0 | 0.00 | 0.00 | 0.00 | 48 | 1010.4 |
| 20260504205535 | 81 | 196 | 4.0 | 12.0 | 0.00 | 0.00 | 0.00 | 47 | 1010.5 |
| 20260504205035 | 82 | 126 | 3.0 | 17.0 | 0.00 | 0.00 | 0.00 | 46 | 1010.5 |
| 20260504204534 | 82 | 188 | 7.0 | 18.0 | 0.00 | 0.00 | 0.00 | 45 | 1010.5 |
| 20260504204034 | 82 | 189 | 4.0 | 10.0 | 0.00 | 0.00 | 0.00 | 45 | 1010.6 |
| 20260504203533 | 82 | 250 | 3.0 | 10.0 | 0.00 | 0.00 | 0.00 | 46 | 1010.5 |
| 20260504203044 | 82 | 198 | 2.0 | 10.0 | 0.00 | 0.00 | 0.00 | 46 | 1010.6 |
| 20260504202533 | 82 | 210 | 4.0 | 10.0 | 0.00 | 0.00 | 0.00 | 46 | 1010.8 |
| 20260504202030 | 82 | 286 | 4.0 | 12.0 | 0.00 | 0.00 | 0.00 | 46 | 1010.8 |
| 20260504201529 | 82 | 184 | 2.0 | 12.0 | 0.00 | 0.00 | 0.00 | 46 | 1010.9 |
| 20260504201028 | 82 | 173 | 4.0 | 11.0 | 0.00 | 0.00 | 0.00 | 45 | 1011.2 |
| 20260504200527 | 82 | 78 | 3.0 | 9.0 | 0.00 | 0.00 | 0.00 | 46 | 1011.3 |
| 20260504200026 | 82 | 217 | 4.0 | 11.0 | 0.00 | 0.00 | 0.00 | 47 | 1011.3 |
| 20260504195527 | 82 | 192 | 6.0 | 13.0 | 0.00 | 0.00 | 0.00 | 46 | 1011.4 |
| 20260504195025 | 82 | 200 | 4.0 | 13.0 | 0.00 | 0.00 | 0.00 | 45 | 1011.4 |
| 20260504194531 | 82 | 152 | 3.0 | 10.0 | 0.00 | 0.00 | 0.00 | 47 | 1011.6 |
| 20260504194024 | 82 | 187 | 3.0 | 10.0 | 0.00 | 0.00 | 0.00 | 47 | 1011.7 |
| 20260504193527 | 82 | 188 | 3.0 | 8.0 | 0.00 | 0.00 | 0.00 | 47 | 1011.7 |
| 20260504193023 | 81 | 232 | 2.0 | 8.0 | 0.00 | 0.00 | 0.00 | 49 | 1011.8 |
| 20260504192521 | 82 | 203 | 3.0 | 10.0 | 0.00 | 0.00 | 0.00 | 47 | 1011.8 |
| 20260504192023 | 81 | 207 | 2.0 | 10.0 | 0.00 | 0.00 | 0.00 | 47 | 1012.0 |
| 20260504191531 | 82 | 228 | 5.0 | 9.0 | 0.00 | 0.00 | 0.00 | 45 | 1012.1 |
| 20260504191021 | 81 | 209 | 4.0 | 9.0 | 0.00 | 0.00 | 0.00 | 46 | 1012.1 |
| 20260504190519 | 81 | 187 | 3.0 | 8.0 | 0.00 | 0.00 | 0.00 | 46 | 1012.2 |
| 20260504190017 | 80 | 205 | 2.0 | 8.0 | 0.00 | 0.00 | 0.00 | 48 | 1012.2 |
| 20260504185516 | 80 | 322 | 2.0 | 9.0 | 0.00 | 0.00 | 0.00 | 47 | 1012.1 |
| 20260504185016 | 80 | 180 | 3.0 | 9.0 | 0.00 | 0.00 | 0.00 | 47 | 1012.2 |
| 20260504184518 | 80 | 331 | 2.0 | 12.0 | 0.00 | 0.00 | 0.00 | 48 | 1012.3 |
| 20260504184016 | 80 | 241 | 5.0 | 12.0 | 0.00 | 0.00 | 0.00 | 47 | 1012.3 |
| 20260504183514 | 80 | 241 | 2.0 | 11.0 | 0.00 | 0.00 | 0.00 | 47 | 1012.4 |
| 20260504183014 | 80 | 160 | 5.0 | 10.0 | 0.00 | 0.00 | 0.00 | 45 | 1012.5 |
| 20260504182517 | 80 | 152 | 3.0 | 10.0 | 0.00 | 0.00 | 0.00 | 47 | 1012.5 |
| 20260504182015 | 80 | 285 | 3.0 | 10.0 | 0.00 | 0.00 | 0.00 | 45 | 1012.5 |
| 20260504181517 | 80 | 188 | 3.0 | 10.0 | 0.00 | 0.00 | 0.00 | 47 | 1012.5 |
| 20260504181011 | 79 | 191 | 3.0 | 8.0 | 0.00 | 0.00 | 0.00 | 47 | 1012.5 |
| 20260504180510 | 79 | 182 | 3.0 | 11.0 | 0.00 | 0.00 | 0.00 | 48 | 1012.7 |
| 20260504180015 | 79 | 157 | 3.0 | 11.0 | 0.00 | 0.00 | 0.00 | 48 | 1012.7 |
| 20260504175510 | 79 | 142 | 2.0 | 9.0 | 0.00 | 0.00 | 0.00 | 49 | 1012.8 |
| 20260504175009 | 79 | 178 | 2.0 | 7.0 | 0.00 | 0.00 | 0.00 | 49 | 1012.8 |
| 20260504174508 | 79 | 242 | 3.0 | 7.0 | 0.00 | 0.00 | 0.00 | 49 | 1012.8 |
| 20260504174007 | 79 | 348 | 3.0 | 11.0 | 0.00 | 0.00 | 0.00 | 48 | 1012.9 |
| 20260504173505 | 78 | 159 | 3.0 | 11.0 | 0.00 | 0.00 | 0.00 | 48 | 1013.1 |
| 20260504173005 | 78 | 186 | 2.0 | 10.0 | 0.00 | 0.00 | 0.00 | 48 | 1013.2 |
| 20260504172504 | 78 | 163 | 4.0 | 10.0 | 0.00 | 0.00 | 0.00 | 48 | 1013.3 |
| 20260504172003 | 78 | 208 | 3.0 | 13.0 | 0.00 | 0.00 | 0.00 | 48 | 1013.3 |
| 20260504171503 | 78 | 196 | 5.0 | 13.0 | 0.00 | 0.00 | 0.00 | 47 | 1013.2 |
| 20260504171003 | 77 | 236 | 3.0 | 15.0 | 0.00 | 0.00 | 0.00 | 48 | 1013.4 |
| 20260504170501 | 78 | 207 | 5.0 | 15.0 | 0.00 | 0.00 | 0.00 | 47 | 1013.4 |
| 20260504151036 | 69 | 178 | 5.0 | 15.0 | 0.00 | 0.00 | 0.00 | 64 | 1014.3 |
| 20260504150536 | 68 | 201 | 2.0 | 9.0 | 0.00 | 0.00 | 0.00 | 66 | 1014.4 |
| 20260504141033 | 65 | 144 | 3.0 | 8.0 | 0.00 | 0.00 | 0.00 | 70 | 1014.7 |
| 20260504140530 | 65 | 190 | 3.0 | 8.0 | 0.00 | 0.00 | 0.00 | 70 | 1014.7 |
| 20260504130526 | 60 | 183 | 2.0 | 5.0 | 0.00 | 0.00 | 0.00 | 82 | 1014.4 |
| 20260504110517 | 61 | 189 | 2.0 | 5.0 | 0.00 | 0.00 | 0.00 | 74 | 1013.6 |
| 20260504100514 | 61 | 192 | 2.0 | 4.0 | 0.00 | 0.00 | 0.00 | 75 | 1014.0 |
| 20260504082001 | 62 | 188 | 2.0 | 4.0 | 0.00 | 0.00 | 0.00 | 73 | 1014.3 |
| 20260504081501 | 63 | 188 | 2.0 | 4.0 | 0.00 | 0.00 | 0.00 | 72 | 1014.3 |
| 20260504081002 | 63 | 188 | 1.0 | 4.0 | 0.00 | 0.00 | 0.00 | 72 | 1014.3 |
| 20260504080600 | 63 | 188 | 1.0 | 4.0 | 0.00 | 0.00 | 0.00 | 72 | 1014.3 |
| 20260504080116 | 63 | 187 | 2.0 | 4.0 | 0.00 | 0.00 | 0.00 | 72 | 1014.4 |
| 20260504050536 | 67 | 203 | 3.0 | 8.0 | 0.00 | 0.00 | 0.00 | 65 | 1015.1 |
| 20260504045536 | 67 | 175 | 3.0 | 7.0 | 0.00 | 0.00 | 0.00 | 64 | 1015.2 |
| 20260504045034 | 67 | 214 | 3.0 | 6.0 | 0.00 | 0.00 | 0.00 | 64 | 1015.3 |
| 20260504044539 | 67 | 178 | 3.0 | 6.0 | 0.00 | 0.00 | 0.00 | 64 | 1015.3 |
| 20260504044034 | 67 | 185 | 3.0 | 6.0 | 0.00 | 0.00 | 0.00 | 64 | 1015.3 |
| 20260504043534 | 68 | 201 | 3.0 | 6.0 | 0.00 | 0.00 | 0.00 | 64 | 1015.3 |
| 20260504043036 | 68 | 199 | 3.0 | 7.0 | 0.00 | 0.00 | 0.00 | 64 | 1015.3 |
| 20260504042534 | 68 | 200 | 3.0 | 8.0 | 0.00 | 0.00 | 0.00 | 64 | 1015.4 |
| 20260504042033 | 68 | 198 | 3.0 | 8.0 | 0.00 | 0.00 | 0.00 | 63 | 1015.4 |
| 20260504041533 | 68 | 192 | 3.0 | 6.0 | 0.00 | 0.00 | 0.00 | 64 | 1015.5 |
| 20260504041033 | 68 | 168 | 3.0 | 7.0 | 0.00 | 0.00 | 0.00 | 63 | 1015.5 |
| 20260504040533 | 68 | 188 | 3.0 | 7.0 | 0.00 | 0.00 | 0.00 | 63 | 1015.5 |
| 20260504040057 | 68 | 184 | 3.0 | 7.0 | 0.00 | 0.00 | 0.00 | 63 | 1015.5 |
| 20260504035533 | 68 | 176 | 3.0 | 6.0 | 0.00 | 0.00 | 0.00 | 63 | 1015.7 |
| 20260504035032 | 68 | 169 | 3.0 | 10.0 | 0.00 | 0.00 | 0.00 | 63 | 1015.6 |
| 20260504034533 | 68 | 196 | 3.0 | 10.0 | 0.00 | 0.00 | 0.00 | 63 | 1015.7 |
| 20260504034032 | 69 | 187 | 3.0 | 6.0 | 0.00 | 0.00 | 0.00 | 62 | 1015.8 |
| 20260504033531 | 69 | 192 | 3.0 | 6.0 | 0.00 | 0.00 | 0.00 | 62 | 1015.7 |
| 20260504033034 | 69 | 183 | 4.0 | 7.0 | 0.00 | 0.00 | 0.00 | 62 | 1015.8 |
| 20260504032534 | 69 | 178 | 3.0 | 7.0 | 0.00 | 0.00 | 0.00 | 62 | 1015.7 |
| 20260504032032 | 69 | 189 | 3.0 | 7.0 | 0.00 | 0.00 | 0.00 | 62 | 1015.7 |
| 20260504031533 | 69 | 175 | 3.0 | 7.0 | 0.00 | 0.00 | 0.00 | 62 | 1015.7 |
| 20260504031030 | 69 | 199 | 4.0 | 7.0 | 0.00 | 0.00 | 0.00 | 61 | 1015.7 |
| 20260504030533 | 69 | 186 | 3.0 | 6.0 | 0.00 | 0.00 | 0.00 | 62 | 1015.6 |
| 20260504030030 | 69 | 192 | 3.0 | 7.0 | 0.00 | 0.00 | 0.00 | 61 | 1015.7 |
| 20260504025531 | 69 | 188 | 3.0 | 7.0 | 0.00 | 0.00 | 0.00 | 61 | 1015.7 |
| 20260504025029 | 69 | 182 | 3.0 | 10.0 | 0.00 | 0.00 | 0.00 | 61 | 1015.6 |
| 20260504024554 | 69 | 146 | 3.0 | 10.0 | 0.00 | 0.00 | 0.00 | 60 | 1015.7 |
| 20260504024033 | 70 | 172 | 3.0 | 6.0 | 0.00 | 0.00 | 0.00 | 60 | 1015.6 |
| 20260504023528 | 70 | 181 | 3.0 | 6.0 | 0.00 | 0.00 | 0.00 | 60 | 1015.6 |
| 20260504023029 | 70 | 194 | 3.0 | 7.0 | 0.00 | 0.00 | 0.00 | 60 | 1015.5 |
| 20260504022531 | 70 | 188 | 3.0 | 7.0 | 0.00 | 0.00 | 0.00 | 59 | 1015.4 |
| 20260504022028 | 70 | 184 | 3.0 | 6.0 | 0.00 | 0.00 | 0.00 | 59 | 1015.5 |
| 20260504021529 | 70 | 194 | 3.0 | 6.0 | 0.00 | 0.00 | 0.00 | 58 | 1015.5 |
| 20260504021027 | 70 | 180 | 3.0 | 6.0 | 0.00 | 0.00 | 0.00 | 58 | 1015.5 |
| 20260504020527 | 70 | 182 | 3.0 | 6.0 | 0.00 | 0.00 | 0.00 | 58 | 1015.5 |
| 20260504020027 | 70 | 186 | 3.0 | 6.0 | 0.00 | 0.00 | 0.00 | 57 | 1015.4 |
| 20260504015527 | 71 | 186 | 3.0 | 5.0 | 0.00 | 0.00 | 0.00 | 57 | 1015.4 |
| 20260504015027 | 71 | 196 | 3.0 | 6.0 | 0.00 | 0.00 | 0.00 | 57 | 1015.3 |
| 20260504014527 | 71 | 180 | 3.0 | 6.0 | 0.00 | 0.00 | 0.00 | 57 | 1015.3 |
| 20260504014029 | 71 | 190 | 3.0 | 6.0 | 0.00 | 0.00 | 0.00 | 55 | 1015.3 |
| 20260504013628 | 71 | 193 | 3.0 | 6.0 | 0.00 | 0.00 | 0.00 | 55 | 1015.3 |
| 20260504013026 | 72 | 184 | 3.0 | 6.0 | 0.00 | 0.00 | 0.00 | 55 | 1015.3 |
| 20260504012527 | 72 | 180 | 3.0 | 6.0 | 0.00 | 0.00 | 0.00 | 55 | 1015.4 |
| 20260504012025 | 72 | 182 | 3.0 | 6.0 | 0.00 | 0.00 | 0.00 | 54 | 1015.3 |
| 20260504011525 | 72 | 185 | 2.0 | 5.0 | 0.00 | 0.00 | 0.00 | 55 | 1015.3 |
| 20260504011025 | 73 | 180 | 2.0 | 5.0 | 0.00 | 0.00 | 0.00 | 54 | 1015.3 |
| 20260504010525 | 73 | 184 | 3.0 | 5.0 | 0.00 | 0.00 | 0.00 | 53 | 1015.3 |
| 20260504010126 | 73 | 182 | 2.0 | 4.0 | 0.00 | 0.00 | 0.00 | 53 | 1015.3 |
| 20260504005525 | 74 | 178 | 2.0 | 4.0 | 0.00 | 0.00 | 0.00 | 52 | 1015.2 |
| 20260504005024 | 74 | 178 | 2.0 | 4.0 | 0.00 | 0.00 | 0.00 | 53 | 1015.2 |
| 20260504004538 | 75 | 166 | 2.0 | 5.0 | 0.00 | 0.00 | 0.00 | 51 | 1015.3 |